1508778000.66,61067,10.44,72842.8,-5.21,-6.55,-6.43,0,*57
1508778001.86,61068,10.44,72848.3,-5.21,-6.55,-6.55,0,*5F
1508778003.06,61069,10.44,72846.3,-5.21,-6.55,-6.55,0,*5E
1508778004.27,61070,10.44,72844.3,-5.25,-6.59,-6.47,0,*5D
1508778005.47,61071,10.44,72838.8,-5.25,-6.59,-6.55,0,*5F
1508778006.67,61072,10.44,72842.5,-5.25,-6.55,-6.55,0,*50
1508778007.89,61073,10.44,72832.0,-5.21,-6.63,-6.55,0,*50
1508778009.11,61074,10.44,72840.3,-5.21,-6.69,-6.63,0,*58
1508778010.32,61075,10.44,72838.8,-5.21,-6.55,-6.55,0,*53
1508778011.52,61076,10.44,72832.5,-5.21,-6.55,-6.51,0,*54
1508778012.73,61077,10.44,72828.8,-5.21,-6.51,-6.51,0,*51
1508778013.93,61078,10.44,72812.3,-5.21,-6.51,-6.51,0,*5E
1508778015.16,61079,10.44,72846.3,-5.21,-6.69,-6.63,0,*55
1508778016.35,61080,10.44,72836.0,-5.25,-6.59,-6.69,0,*5E
1508778017.55,61081,10.44,72834.0,-5.25,-6.73,-6.69,0,*57
1508778018.74,61082,10.44,72848.5,-5.25,-6.69,-6.69,0,*5F
1508778019.94,61083,10.44,72850.3,-5.25,-6.55,-6.55,0,*5E
1508778021.15,61084,10.44,72842.3,-5.21,-6.51,-6.51,0,*5D
1508778022.34,61085,10.44,72840.5,-5.21,-6.69,-6.69,0,*5C
1508778023.54,61086,10.44,72840.0,-5.25,-6.59,-6.59,0,*5B
1508778024.75,61087,10.44,72842.0,-5.25,-6.59,-6.59,0,*5A
1508778025.94,61088,10.44,72844.3,-5.25,-6.69,-6.69,0,*55
1508778027.14,61089,10.44,72848.0,-5.25,-6.73,-6.81,0,*59
1508778028.34,61090,10.44,72844.3,-5.25,-6.59,-6.73,0,*54
1508778029.55,61091,10.44,72850.8,-5.25,-6.55,-6.59,0,*51
1508778030.77,61092,10.44,72852.0,-5.27,-6.59,-6.69,0,*5F
1508778031.96,61093,10.44,72854.3,-5.25,-6.69,-6.73,0,*54
1508778033.16,61094,10.44,72850.0,-5.25,-6.69,-6.73,0,*53
1508778034.35,61095,10.44,72846.8,-5.25,-6.69,-6.59,0,*5A
1508778035.55,61096,10.44,72856.0,-5.25,-6.59,-6.69,0,*59
1508778036.75,61097,10.44,72852.3,-5.21,-6.69,-6.73,0,*54
1508778037.99,61098,10.44,72852.8,-5.21,-6.63,-6.63,0,*50
1508778039.24,61099,10.44,72840.5,-5.21,-6.63,-6.63,0,*51
1508778040.46,61100,10.44,72836.5,-5.21,-6.63,-6.55,0,*55
1508778041.66,61101,10.44,72822.3,-5.25,-6.77,-6.77,0,*55
1508778042.86,61102,10.44,72800.5,-5.25,-6.73,-6.81,0,*5B
1508778044.12,61103,10.44,72842.0,-5.25,-6.93,-6.93,0,*57
1508778045.31,61104,10.44,72860.0,-5.25,-6.85,-6.85,0,*50
1508778046.54,61105,10.44,72844.0,-5.27,-6.85,-6.85,0,*53
1508778047.75,61106,10.44,72862.3,-5.25,-6.81,-6.81,0,*52
1508778048.94,61107,10.44,72862.5,-5.25,-6.59,-6.69,0,*50
1508778050.14,61108,10.44,72848.0,-5.25,-6.69,-6.73,0,*57
1508778051.34,61109,10.44,72842.3,-5.25,-6.69,-6.59,0,*5E
1508778052.57,61110,10.44,72846.3,-5.27,-6.81,-6.81,0,*57
1508778053.78,61111,10.44,72856.0,-5.27,-6.69,-6.69,0,*56
1508778054.99,61112,10.44,72846.8,-5.25,-6.81,-6.81,0,*57
1508778056.22,61113,10.44,72842.8,-5.27,-6.81,-6.81,0,*54
1508778057.43,61114,10.44,72846.5,-5.25,-6.81,-6.73,0,*5C
1508778058.65,61115,10.44,72860.5,-5.27,-6.73,-6.73,0,*52
1508778059.88,61116,10.44,72854.0,-5.27,-6.73,-6.81,0,*5C
1508778061.1,61117,10.44,72856.3,-5.27,-6.81,-6.73,0,*5D
1508778062.33,61118,10.44,72844.8,-5.27,-6.81,-6.81,0,*5F
1508778063.56,61119,10.44,72850.3,-5.27,-6.81,-6.85,0,*5A
1508778064.76,61120,10.44,72842.8,-5.25,-6.81,-6.73,0,*5B
1508778065.98,61121,10.44,72840.8,-5.27,-6.73,-6.73,0,*55
1508778067.22,61122,10.44,72848.3,-5.27,-6.81,-6.81,0,*56
1508778068.42,61123,10.44,72844.5,-5.25,-6.73,-6.81,0,*58
1508778069.65,61124,10.44,72840.0,-5.27,-6.73,-6.81,0,*5D
1508778070.88,61125,10.44,72842.3,-5.27,-6.73,-6.81,0,*5C
1508778072.09,61126,10.44,72850.5,-5.27,-6.69,-6.73,0,*59
1508778073.32,61127,10.44,72848.5,-5.27,-6.81,-6.69,0,*55
1508778074.54,61128,10.44,72848.5,-5.27,-6.69,-6.73,0,*57
1508778075.76,61129,10.44,72850.0,-5.27,-6.59,-6.69,0,*5E
1508778076.98,61130,10.44,72854.8,-5.27,-6.69,-6.81,0,*53
1508778078.18,61131,10.44,72858.5,-5.25,-6.69,-6.73,0,*5D
1508778079.38,61132,10.44,72848.0,-5.25,-6.73,-6.81,0,*58
1508778080.6,61133,10.44,72848.0,-5.27,-6.81,-6.73,0,*5B
1508778081.84,61134,10.44,72844.3,-5.27,-6.81,-6.81,0,*51
1508778083.07,61135,10.44,72840.8,-5.27,-6.73,-6.81,0,*5D
1508778084.3,61136,10.44,72838.5,-5.27,-6.81,-6.81,0,*53
1508778085.53,61137,10.44,72844.3,-5.27,-6.81,-6.81,0,*52
1508778086.76,61138,10.44,72866.8,-5.27,-6.81,-6.81,0,*5D
1508778088.0,61139,10.44,72842.8,-5.27,-6.81,-6.81,0,*5C
1508778089.22,61140,10.44,72848.8,-5.27,-6.73,-6.81,0,*5F
1508778090.44,61141,10.44,72848.0,-5.27,-6.69,-6.69,0,*53
1508778091.66,61142,10.44,72860.5,-5.27,-6.59,-6.59,0,*50
1508778092.88,61143,10.44,72864.0,-5.27,-6.59,-6.69,0,*52
1508778094.11,61144,10.44,72852.3,-5.27,-6.59,-6.73,0,*5E
1508778095.33,61145,10.44,72846.0,-5.27,-6.59,-6.69,0,*54
1508778096.53,61146,10.44,72844.3,-5.29,-6.73,-6.73,0,*5A
1508778097.75,61147,10.44,72854.3,-5.27,-6.59,-6.69,0,*56
1508778098.97,61148,10.44,72852.0,-5.27,-6.59,-6.69,0,*59
1508778100.19,61149,10.44,72852.5,-5.27,-6.73,-6.69,0,*50
1508778101.41,61150,10.44,72854.3,-5.27,-6.81,-6.73,0,*5E
1508778102.64,61151,10.44,72856.0,-5.27,-6.73,-6.81,0,*5F
1508778103.87,61152,10.44,72854.8,-5.27,-6.81,-6.73,0,*5C
1508778105.09,61153,10.44,72850.5,-5.27,-6.69,-6.73,0,*5B
1508778106.29,61154,10.44,72866.0,-5.25,-6.59,-6.73,0,*5D
1508778107.48,61155,10.44,72866.3,-5.25,-6.69,-6.59,0,*57
1508778108.7,61156,10.44,72852.0,-5.27,-6.69,-6.69,0,*55
1508778109.92,61157,10.44,72852.0,-5.27,-6.69,-6.73,0,*5F
1508778111.14,61158,10.44,72856.3,-5.27,-6.59,-6.73,0,*53
1508778112.36,61159,10.44,72856.0,-5.27,-6.59,-6.69,0,*59
1508778113.58,61160,10.44,72862.5,-5.27,-6.69,-6.69,0,*50
1508778114.8,61161,10.44,72864.5,-5.27,-6.59,-6.69,0,*52
1508778116.02,61162,10.44,72856.8,-5.27,-6.59,-6.69,0,*51
1508778117.23,61163,10.44,72848.3,-5.27,-6.69,-6.73,0,*58
1508778118.45,61164,10.44,72850.3,-5.27,-6.69,-6.73,0,*5F
1508778119.67,61165,10.44,72854.3,-5.27,-6.69,-6.73,0,*5E
1508778120.89,61166,10.44,72856.8,-5.27,-6.59,-6.69,0,*55
1508778122.12,61167,10.44,72852.0,-5.27,-6.69,-6.81,0,*51
1508778123.34,61168,10.44,72848.3,-5.27,-6.69,-6.73,0,*53
1508778124.56,61169,10.44,72852.3,-5.27,-6.59,-6.73,0,*51
1508778125.78,61170,10.44,72854.8,-5.27,-6.59,-6.69,0,*52
1508778127.0,61171,10.44,72852.0,-5.27,-6.59,-6.69,0,*53
1508778128.23,61172,10.44,72858.0,-5.27,-6.59,-6.59,0,*53
1508778129.45,61173,10.44,72852.0,-5.27,-6.59,-6.69,0,*51
1508778130.67,61174,10.44,72856.5,-5.27,-6.59,-6.73,0,*5D
1508778131.89,61175,10.44,72850.3,-5.27,-6.55,-6.69,0,*5B
1508778133.11,61176,10.44,72850.5,-5.27,-6.59,-6.73,0,*5F
1508778134.34,61177,10.44,72852.5,-5.27,-6.59,-6.73,0,*5E
1508778135.55,61178,10.44,72850.0,-5.27,-6.69,-6.69,0,*59
1508778136.77,61179,10.44,72854.3,-5.27,-6.59,-6.69,0,*5B
1508778137.99,61180,10.44,72852.5,-5.27,-6.59,-6.69,0,*5D
1508778139.21,61181,10.44,72852.0,-5.27,-6.69,-6.59,0,*5C
1508778140.43,61182,10.44,72852.3,-5.27,-6.69,-6.73,0,*57
1508778141.65,61183,10.44,72852.5,-5.27,-6.69,-6.73,0,*56
1508778142.87,61184,10.44,72856.8,-5.27,-6.59,-6.73,0,*52
1508778144.1,61185,10.44,72854.3,-5.27,-6.69,-6.81,0,*5D
1508778145.32,61186,10.44,72856.0,-5.27,-6.59,-6.73,0,*50
1508778146.55,61187,10.44,72856.0,-5.27,-6.59,-6.73,0,*51
1508778147.74,61188,10.44,72858.5,-5.25,-6.69,-6.73,0,*5F
1508778148.96,61189,10.44,72860.5,-5.27,-6.59,-6.69,0,*54
1508778150.18,61190,10.44,72856.8,-5.27,-6.59,-6.69,0,*5C
1508778151.4,61191,10.44,72860.3,-5.27,-6.69,-6.69,0,*5E
1508778152.61,61192,10.44,72860.8,-5.27,-6.69,-6.69,0,*5D
1508778153.83,61193,10.44,72862.0,-5.27,-6.69,-6.69,0,*5C
1508778155.04,61194,10.44,72860.3,-5.27,-6.69,-6.69,0,*5B
1508778156.25,61195,10.44,72852.8,-5.25,-6.81,-6.81,0,*58
1508778157.45,61196,10.44,72856.5,-5.25,-6.73,-6.73,0,*5B
1508778158.65,61197,10.44,72852.5,-5.25,-6.73,-6.73,0,*5A
1508778159.86,61198,10.44,72848.8,-5.27,-6.69,-6.69,0,*57
1508778161.08,61199,10.44,72852.5,-5.27,-6.69,-6.69,0,*56
1508778162.3,61200,10.44,72856.8,-5.27,-6.59,-6.69,0,*56
1508778163.49,61201,10.44,72852.5,-5.25,-6.59,-6.69,0,*55
1508778164.7,61202,10.44,72858.0,-5.25,-6.59,-6.59,0,*55
1508778165.92,61203,10.44,72850.8,-5.27,-6.69,-6.59,0,*55
1508778167.14,61204,10.44,72850.0,-5.27,-6.55,-6.55,0,*51
1508778168.35,61205,10.44,72854.5,-5.25,-6.59,-6.55,0,*5E
1508778169.57,61206,10.44,72852.8,-5.27,-6.59,-6.59,0,*53
1508778170.8,61207,10.44,72854.3,-5.27,-6.73,-6.81,0,*5F
1508778172.0,61208,10.44,72856.3,-5.25,-6.69,-6.59,0,*5C
1508778173.2,61209,10.44,72854.8,-5.25,-6.59,-6.69,0,*5D
1508778174.42,61210,10.44,72856.0,-5.27,-6.59,-6.69,0,*57
1508778175.64,61211,10.44,72856.3,-5.27,-6.59,-6.69,0,*56
1508778176.85,61212,10.44,72862.3,-5.27,-6.69,-6.69,0,*56
1508778178.07,61213,10.44,72860.0,-5.27,-6.59,-6.69,0,*54
1508778179.26,61214,10.44,72862.0,-5.25,-6.69,-6.69,0,*52
1508778180.49,61215,10.44,72856.8,-5.27,-6.59,-6.59,0,*51
1508778181.72,61216,10.44,72858.0,-5.27,-6.59,-6.59,0,*52
1508778182.93,61217,10.44,72852.5,-5.27,-6.69,-6.69,0,*53
1508778184.15,61218,10.44,72862.0,-5.27,-6.69,-6.69,0,*5C
1508778185.37,61219,10.44,72850.0,-5.27,-6.59,-6.59,0,*5D
1508778186.59,61220,10.44,72844.3,-5.27,-6.69,-6.59,0,*54
1508778187.82,61221,10.44,72848.3,-5.27,-6.59,-6.59,0,*56
1508778189.05,61222,10.44,72850.3,-5.27,-6.59,-6.59,0,*55
1508778190.24,61223,10.44,72850.8,-5.25,-6.69,-6.59,0,*55
1508778191.45,61224,10.44,72848.0,-5.25,-6.59,-6.59,0,*51
1508778192.67,61225,10.44,72850.3,-5.27,-6.55,-6.59,0,*5E
1508778193.89,61226,10.44,72854.3,-5.27,-6.55,-6.69,0,*5E
1508778195.08,61227,10.44,72864.5,-5.25,-6.69,-6.69,0,*52
1508778196.28,61228,10.44,72850.8,-5.25,-6.69,-6.69,0,*5D
1508778197.47,61229,10.44,72852.3,-5.25,-6.59,-6.69,0,*5F
1508778198.69,61230,10.44,72838.0,-5.27,-6.69,-6.73,0,*5D
1508778199.92,61231,10.44,72842.5,-5.27,-6.81,-6.73,0,*5A
1508778201.15,61232,10.44,72842.0,-5.27,-6.81,-6.81,0,*54
1508778202.37,61233,10.44,72844.5,-5.27,-6.73,-6.73,0,*55
1508778203.59,61234,10.44,72840.0,-5.27,-6.59,-6.69,0,*51
1508778204.79,61235,10.44,72828.0,-5.25,-6.69,-6.73,0,*5A
1508778206.0,61236,10.44,72828.5,-5.27,-6.69,-6.73,0,*5B
1508778207.2,61237,10.44,72830.0,-5.25,-6.59,-6.69,0,*50
1508778208.4,61238,10.44,72824.3,-5.25,-6.59,-6.73,0,*54
1508778209.62,61239,10.44,72818.5,-5.27,-6.73,-6.73,0,*5F
1508778210.85,61240,10.44,72834.5,-5.27,-6.59,-6.73,0,*59
1508778212.07,61241,10.44,72844.3,-5.27,-6.69,-6.81,0,*56
1508778213.3,61242,10.44,72852.8,-5.27,-6.81,-6.81,0,*53
1508778214.53,61243,10.44,72860.0,-5.27,-6.73,-6.81,0,*5F
1508778215.74,61244,10.44,72858.8,-5.29,-6.77,-6.85,0,*56
1508778216.96,61245,10.44,72838.5,-5.27,-6.73,-6.81,0,*59
1508778218.17,61246,10.44,72850.3,-5.29,-6.73,-6.73,0,*59
1508778219.37,61247,10.44,72836.3,-5.29,-6.89,-6.85,0,*54
1508778220.57,61248,10.44,72824.8,-5.29,-6.77,-6.77,0,*57
1508778221.78,61249,10.44,72842.5,-5.29,-6.77,-6.77,0,*56
1508778222.98,61250,10.44,72856.0,-5.29,-6.77,-6.73,0,*5A
1508778224.19,61251,10.44,72838.8,-5.29,-6.77,-6.85,0,*52
1508778225.39,61252,10.44,72836.3,-5.29,-6.85,-6.85,0,*5C
1508778226.6,61253,10.44,72842.8,-5.29,-6.77,-6.77,0,*5D
1508778227.8,61254,10.44,72844.3,-5.29,-6.85,-6.85,0,*5A
1508778229.0,61255,10.44,72840.0,-5.29,-6.77,-6.85,0,*56
1508778230.22,61256,10.44,72842.3,-5.27,-6.69,-6.69,0,*56
1508778231.43,61257,10.44,72838.0,-5.27,-6.69,-6.69,0,*57
1508778232.65,61258,10.44,72840.0,-5.27,-6.73,-6.73,0,*58
1508778233.86,61259,10.44,72842.8,-5.29,-6.77,-6.77,0,*57
1508778235.07,61260,10.44,72838.5,-5.29,-6.77,-6.85,0,*50
1508778236.27,61261,10.44,72866.0,-5.29,-6.85,-6.85,0,*5C
1508778237.47,61262,10.44,72858.3,-5.29,-6.85,-6.85,0,*5F
1508778238.67,61263,10.44,72862.8,-5.29,-6.77,-6.77,0,*5E
1508778239.88,61264,10.44,72862.3,-5.29,-6.77,-6.73,0,*5D
1508778241.08,61265,10.44,72848.8,-5.29,-6.77,-6.73,0,*5C
1508778242.29,61266,10.44,72854.0,-5.29,-6.77,-6.77,0,*5B
1508778243.5,61267,10.44,72854.3,-5.29,-6.77,-6.77,0,*5A
1508778244.74,61268,10.44,72862.5,-5.29,-6.63,-6.63,0,*55
1508778245.97,61269,10.44,72856.8,-5.29,-6.63,-6.73,0,*55
1508778247.19,61270,10.44,72858.3,-5.29,-6.73,-6.63,0,*5D
1508778248.42,61271,10.44,72870.0,-5.29,-6.63,-6.73,0,*5C
1508778249.62,61272,10.44,72860.3,-5.29,-6.85,-6.73,0,*57
1508778250.82,61273,10.44,72858.3,-5.29,-6.73,-6.73,0,*5F
1508778252.02,61274,10.44,72856.8,-5.29,-6.73,-6.73,0,*58
1508778253.22,61275,10.44,72848.5,-5.29,-6.73,-6.73,0,*59
1508778254.44,61276,10.44,72854.0,-5.29,-6.63,-6.73,0,*5B
1508778255.67,61277,10.44,72854.3,-5.27,-6.59,-6.59,0,*55
1508778256.89,61278,10.44,72856.5,-5.29,-6.63,-6.73,0,*55
1508778258.09,61279,10.44,72852.5,-5.29,-6.73,-6.73,0,*55
1508778259.32,61280,10.44,72856.3,-5.29,-6.63,-6.73,0,*52
1508778260.54,61281,10.44,72850.5,-5.29,-6.63,-6.73,0,*53
1508778261.79,61282,10.44,72854.0,-5.29,-6.63,-6.63,0,*51
1508778263.01,61283,10.44,72854.0,-5.31,-6.73,-6.73,0,*59
1508778264.23,61284,10.44,72850.3,-5.29,-6.63,-6.77,0,*52
1508778265.48,61285,10.44,72850.5,-5.29,-6.63,-6.63,0,*56
1508778266.73,61286,10.44,72848.3,-5.29,-6.63,-6.63,0,*55
1508778267.93,61287,10.44,72852.3,-5.29,-6.73,-6.73,0,*54
1508778269.18,61288,10.44,72852.8,-5.29,-6.63,-6.63,0,*5B
1508778270.38,61289,10.44,72854.0,-5.29,-6.73,-6.73,0,*5A
1508778271.58,61290,10.44,72850.5,-5.29,-6.73,-6.73,0,*52
1508778272.8,61291,10.44,72844.8,-5.29,-6.63,-6.73,0,*52
1508778274.01,61292,10.44,72838.0,-5.29,-6.89,-6.85,0,*5C
1508778275.21,61293,10.44,72848.3,-5.29,-6.77,-6.85,0,*5C
1508778276.44,61294,10.44,72842.3,-5.27,-6.81,-6.81,0,*58
1508778277.65,61295,10.44,72860.3,-5.29,-6.85,-6.85,0,*57
1508778278.85,61296,10.44,72848.8,-5.29,-6.77,-6.73,0,*50
1508778280.1,61297,10.44,72856.8,-5.29,-6.63,-6.63,0,*55
1508778281.3,61298,10.44,72856.0,-5.29,-6.73,-6.73,0,*5A
1508778282.55,61299,10.44,72864.8,-5.31,-6.73,-6.63,0,*53
1508778283.75,61300,10.44,72858.5,-5.29,-6.73,-6.77,0,*5E
1508778284.98,61301,10.44,72856.0,-5.29,-6.63,-6.73,0,*5A
1508778286.18,61302,10.44,72858.8,-5.29,-6.77,-6.77,0,*58
1508778287.38,61303,10.44,72846.5,-5.29,-6.73,-6.77,0,*5D
1508778288.59,61304,10.44,72854.5,-5.29,-6.73,-6.77,0,*5A
1508778289.79,61305,10.44,72852.3,-5.29,-6.77,-6.85,0,*52
1508778291.04,61306,10.44,72848.5,-5.29,-6.63,-6.63,0,*5C
1508778292.26,61307,10.44,72852.0,-5.29,-6.63,-6.73,0,*5C
1508778293.53,61308,10.44,72852.5,-5.31,-6.63,-6.63,0,*5B
1508778294.76,61309,10.44,72852.5,-5.29,-6.73,-6.63,0,*52
1508778296.01,61310,10.44,72856.0,-5.29,-6.63,-6.63,0,*5B
1508778297.26,61311,10.44,72858.0,-5.29,-6.63,-6.63,0,*5A
1508778298.49,61312,10.44,72852.5,-5.29,-6.73,-6.63,0,*58
1508778299.69,61313,10.44,72854.0,-5.29,-6.59,-6.59,0,*58
1508778300.97,61314,10.44,72858.0,-5.31,-6.63,-6.63,0,*56
1508778302.24,61315,10.44,72852.8,-5.31,-6.63,-6.63,0,*57
1508778303.46,61316,10.44,72854.0,-5.29,-6.63,-6.73,0,*5C
1508778304.69,61317,10.44,72854.3,-5.29,-6.73,-6.63,0,*5D
1508778305.89,61318,10.44,72848.5,-5.29,-6.73,-6.59,0,*5B
1508778307.14,61319,10.44,72852.5,-5.29,-6.63,-6.63,0,*52
1508778308.34,61320,10.44,72842.3,-5.29,-6.73,-6.77,0,*5C
1508778309.55,61321,10.44,72846.0,-5.29,-6.77,-6.77,0,*59
1508778310.77,61322,10.44,72854.5,-5.29,-6.63,-6.77,0,*5F
1508778311.98,61323,10.44,72854.0,-5.29,-6.77,-6.73,0,*5F
1508778313.18,61324,10.44,72844.3,-5.29,-6.85,-6.85,0,*5C
1508778314.38,61325,10.44,72850.5,-5.29,-6.77,-6.77,0,*5D
1508778315.61,61326,10.44,72854.0,-5.29,-6.63,-6.73,0,*5F
1508778316.85,61327,10.44,72850.8,-5.29,-6.63,-6.63,0,*5F
1508778318.06,61328,10.38,72844.8,-5.29,-6.73,-6.73,0,*50
1508778319.26,61329,10.44,72844.8,-5.29,-6.73,-6.73,0,*51
1508778320.46,61330,10.44,72846.0,-5.29,-6.73,-6.73,0,*59
1508778321.73,61331,10.44,72844.5,-5.31,-6.63,-6.63,0,*51
1508778322.96,61332,10.44,72846.8,-5.31,-6.51,-6.73,0,*52
1508778324.16,61333,10.44,72848.3,-5.29,-6.73,-6.73,0,*5A
1508778325.38,61334,10.44,72844.3,-5.29,-6.63,-6.73,0,*5C
1508778326.59,61335,10.44,72846.0,-5.29,-6.73,-6.77,0,*58
1508778327.79,61336,10.44,72844.5,-5.29,-6.73,-6.73,0,*5F
1508778328.99,61337,10.38,72842.8,-5.29,-6.77,-6.77,0,*5E
1508778330.24,61338,10.44,72840.0,-5.31,-6.63,-6.77,0,*5D
1508778331.44,61339,10.44,72842.0,-5.29,-6.73,-6.77,0,*54
1508778332.66,61340,10.44,72836.5,-5.29,-6.63,-6.77,0,*5B
1508778333.87,61341,10.44,72842.0,-5.29,-6.59,-6.59,0,*5F
1508778335.1,61342,10.44,72840.5,-5.29,-6.63,-6.59,0,*55
1508778336.32,61343,10.44,72836.8,-5.29,-6.63,-6.73,0,*5C
1508778337.57,61344,10.38,72836.0,-5.29,-6.63,-6.63,0,*5A
1508778338.77,61345,10.44,72840.3,-5.29,-6.73,-6.73,0,*5B
1508778339.99,61346,10.44,72838.3,-5.29,-6.63,-6.73,0,*59
1508778341.24,61347,10.38,72838.5,-5.29,-6.63,-6.63,0,*59
1508778342.49,61348,10.44,72838.8,-5.29,-6.63,-6.63,0,*56
1508778343.72,61349,10.44,72840.8,-5.29,-6.51,-6.63,0,*56
1508778344.92,61350,10.44,72846.5,-5.29,-6.73,-6.73,0,*5F
1508778346.15,61351,10.44,72842.5,-5.31,-6.73,-6.73,0,*57
1508778347.37,61352,10.44,72840.5,-5.29,-6.63,-6.73,0,*5C
1508778348.57,61353,10.44,72842.0,-5.29,-6.73,-6.73,0,*5C
1508778349.77,61354,10.44,72840.3,-5.29,-6.73,-6.73,0,*5B
1508778350.97,61355,10.44,72850.8,-5.29,-6.73,-6.85,0,*53
1508778352.2,61356,10.44,72846.3,-5.31,-6.77,-6.73,0,*54
1508778353.45,61357,10.44,72848.5,-5.29,-6.63,-6.63,0,*58
1508778354.65,61358,10.44,72850.3,-5.29,-6.59,-6.73,0,*5F
1508778355.91,61359,10.44,72846.8,-5.31,-6.59,-6.63,0,*56
1508778357.16,61360,10.44,72848.8,-5.31,-6.59,-6.63,0,*5C
1508778358.41,61361,10.44,72846.3,-5.31,-6.63,-6.73,0,*55
1508778359.65,61362,10.44,72854.8,-5.29,-6.63,-6.63,0,*5E
1508778360.88,61363,10.44,72848.5,-5.31,-6.73,-6.73,0,*56
1508778362.1,61364,10.44,72846.5,-5.31,-6.73,-6.77,0,*55
1508778363.31,61365,10.38,72846.3,-5.29,-6.77,-6.77,0,*59
1508778364.56,61366,10.44,72848.8,-5.29,-6.63,-6.63,0,*5A
1508778365.79,61367,10.44,72842.8,-5.29,-6.59,-6.63,0,*52
1508778367.01,61368,10.38,72842.3,-5.29,-6.63,-6.73,0,*55
1508778368.26,61369,10.44,72842.3,-5.31,-6.63,-6.73,0,*5D
1508778369.5,61370,10.44,72840.5,-5.31,-6.63,-6.73,0,*55
1508778370.7,61371,10.44,72844.8,-5.29,-6.73,-6.73,0,*5C
1508778371.93,61372,10.44,72840.0,-5.31,-6.73,-6.85,0,*5F
1508778373.15,61373,10.44,72846.5,-5.29,-6.63,-6.77,0,*5B
1508778374.38,61374,10.44,72842.5,-5.31,-6.73,-6.85,0,*59
1508778375.65,61375,10.38,72844.8,-5.31,-6.63,-6.63,0,*51
1508778376.9,61376,10.44,72846.0,-5.31,-6.51,-6.63,0,*53
1508778378.14,61377,10.38,72846.3,-5.31,-6.51,-6.59,0,*5B
1508778379.37,61378,10.38,72844.3,-5.31,-6.51,-6.59,0,*54
1508778380.58,61379,10.44,72846.3,-5.29,-6.51,-6.59,0,*5C
1508778381.84,61380,10.44,72842.3,-5.31,-6.59,-6.63,0,*52
1508778383.04,61381,10.44,72846.3,-5.29,-6.59,-6.59,0,*53
1508778384.25,61382,10.44,72844.3,-5.29,-6.51,-6.59,0,*58
1508778385.45,61383,10.44,72842.8,-5.29,-6.73,-6.59,0,*59
1508778386.7,61384,10.44,72844.8,-5.29,-6.63,-6.63,0,*56
1508778387.94,61385,10.38,72846.5,-5.31,-6.51,-6.59,0,*56
1508778389.15,61386,10.44,72848.5,-5.29,-6.51,-6.59,0,*5C
1508778390.38,61387,10.38,72848.0,-5.31,-6.51,-6.51,0,*5C
1508778391.59,61388,10.44,72850.0,-5.29,-6.59,-6.59,0,*5A
1508778392.84,61389,10.44,72854.3,-5.31,-6.59,-6.63,0,*5B
1508778394.07,61390,10.38,72854.0,-5.31,-6.51,-6.59,0,*52
1508778395.33,61391,10.38,72850.5,-5.31,-6.59,-6.63,0,*52
1508778396.54,61392,10.44,72858.8,-5.29,-6.51,-6.51,0,*51
1508778397.76,61393,10.38,72854.3,-5.27,-6.55,-6.47,0,*5D
1508778399.0,61394,10.44,72856.5,-5.31,-6.51,-6.59,0,*56
1508778400.21,61395,10.38,72854.8,-5.29,-6.51,-6.59,0,*5E
1508778401.42,61396,10.44,72856.3,-5.29,-6.51,-6.51,0,*55
1508778402.62,61397,10.38,72854.0,-5.29,-6.47,-6.51,0,*53
1508778403.86,61398,10.44,72860.3,-5.31,-6.51,-6.51,0,*52
1508778405.06,61399,10.38,72856.3,-5.29,-6.59,-6.51,0,*52
1508778406.27,61400,10.44,72860.5,-5.29,-6.51,-6.59,0,*55
1508778407.48,61401,10.44,72856.8,-5.29,-6.51,-6.51,0,*5C
1508778408.69,61402,10.44,72856.0,-5.29,-6.59,-6.59,0,*5F
1508778409.9,61403,10.44,72864.5,-5.29,-6.51,-6.51,0,*5E
1508778411.12,61404,10.44,72860.0,-5.27,-6.47,-6.55,0,*54
1508778412.33,61405,10.44,72856.8,-5.29,-6.51,-6.59,0,*50
1508778413.54,61406,10.44,72858.0,-5.29,-6.51,-6.51,0,*5B
1508778414.75,61407,10.44,72858.3,-5.29,-6.51,-6.51,0,*5A
1508778415.96,61408,10.38,72856.0,-5.29,-6.51,-6.51,0,*55
1508778417.17,61409,10.44,72854.8,-5.29,-6.51,-6.59,0,*5C
1508778418.38,61410,10.38,72854.0,-5.29,-6.59,-6.59,0,*5C
1508778419.59,61411,10.44,72856.8,-5.29,-6.51,-6.59,0,*55
1508778420.8,61412,10.38,72854.0,-5.29,-6.59,-6.59,0,*5E
1508778422.0,61413,10.44,72854.3,-5.29,-6.59,-6.59,0,*5F
1508778423.21,61414,10.44,72854.8,-5.29,-6.51,-6.59,0,*50
1508778424.44,61415,10.44,72852.0,-5.29,-6.63,-6.59,0,*50
1508778425.64,61416,10.44,72850.0,-5.29,-6.59,-6.59,0,*5A
1508778426.87,61417,10.44,72852.8,-5.29,-6.59,-6.63,0,*52
1508778428.13,61418,10.44,72854.0,-5.31,-6.59,-6.63,0,*54
1508778429.36,61419,10.44,72850.8,-5.29,-6.73,-6.63,0,*54
1508778430.58,61420,10.38,72852.5,-5.29,-6.63,-6.73,0,*5E
1508778431.85,61421,10.44,72854.5,-5.31,-6.63,-6.63,0,*57
1508778433.07,61422,10.38,72850.8,-5.29,-6.63,-6.73,0,*5C
1508778434.32,61423,10.44,72856.5,-5.29,-6.63,-6.63,0,*5C
1508778435.55,61424,10.44,72856.3,-5.31,-6.59,-6.59,0,*52
1508778436.78,61425,10.44,72854.3,-5.29,-6.59,-6.63,0,*53
1508778438.05,61426,10.44,72852.5,-5.31,-6.63,-6.63,0,*50
1508778439.3,61427,10.44,72852.0,-5.29,-6.63,-6.63,0,*58
1508778440.56,61428,10.44,72848.0,-5.31,-6.51,-6.63,0,*5F
1508778441.78,61429,10.38,72844.8,-5.29,-6.63,-6.73,0,*57
1508778443.01,61430,10.38,72844.8,-5.29,-6.73,-6.63,0,*5F
1508778444.22,61431,10.38,72846.5,-5.29,-6.59,-6.59,0,*5F
1508778445.45,61432,10.38,72844.8,-5.31,-6.59,-6.59,0,*55
1508778446.7,61433,10.38,72846.5,-5.31,-6.73,-6.63,0,*55
1508778447.97,61434,10.38,72846.8,-5.31,-6.63,-6.63,0,*53
1508778449.2,61435,10.38,72844.3,-5.29,-6.73,-6.63,0,*5A
1508778450.4,61436,10.38,72846.8,-5.29,-6.73,-6.73,0,*58
1508778451.63,61437,10.44,72852.3,-5.29,-6.73,-6.63,0,*58
1508778452.85,61438,10.44,72854.8,-5.29,-6.63,-6.73,0,*57
1508778454.05,61439,10.38,72850.8,-5.29,-6.73,-6.73,0,*57
1508778455.26,61440,10.44,72854.5,-5.29,-6.77,-6.77,0,*59
1508778456.46,61441,10.44,72852.5,-5.29,-6.77,-6.85,0,*55
1508778457.67,61442,10.38,72848.8,-5.29,-6.77,-6.73,0,*5F
1508778458.89,61443,10.38,72850.3,-5.29,-6.73,-6.63,0,*5B
1508778460.1,61444,10.44,72856.3,-5.29,-6.73,-6.73,0,*5D
1508778461.32,61445,10.44,72852.8,-5.29,-6.63,-6.73,0,*5D
1508778462.54,61446,10.38,72854.0,-5.31,-6.73,-6.73,0,*56
1508778463.77,61447,10.38,72854.3,-5.31,-6.73,-6.73,0,*57
1508778464.97,61448,10.44,72854.8,-5.29,-6.73,-6.73,0,*51
1508778466.21,61449,10.38,72856.0,-5.31,-6.63,-6.73,0,*58
1508778467.41,61450,10.38,72856.3,-5.29,-6.73,-6.73,0,*58
1508778468.64,61451,10.38,72854.8,-5.31,-6.77,-6.77,0,*50
1508778469.9,61452,10.38,72850.8,-5.31,-6.73,-6.63,0,*52
1508778471.12,61453,10.44,72858.5,-5.31,-6.73,-6.77,0,*56
1508778472.39,61454,10.44,72854.8,-5.31,-6.63,-6.63,0,*55
1508778473.64,61455,10.44,72848.0,-5.29,-6.63,-6.63,0,*5D
1508778474.91,61456,10.38,72844.5,-5.31,-6.63,-6.63,0,*57
1508778476.16,61457,10.44,72852.5,-5.29,-6.63,-6.63,0,*5F
1508778477.39,61458,10.38,72850.0,-5.31,-6.73,-6.73,0,*59
1508778478.62,61459,10.44,72850.0,-5.31,-6.77,-6.77,0,*58
1508778479.89,61460,10.44,72858.8,-5.31,-6.63,-6.63,0,*52
1508778481.14,61461,10.38,72848.8,-5.31,-6.73,-6.63,0,*52
1508778482.39,61462,10.44,72850.5,-5.31,-6.63,-6.73,0,*51
1508778483.63,61463,10.44,72850.5,-5.29,-6.63,-6.63,0,*58
1508778484.86,61464,10.44,72850.8,-5.31,-6.73,-6.73,0,*56
1508778486.09,61465,10.44,72850.5,-5.31,-6.59,-6.73,0,*5F
1508778487.29,61466,10.44,72856.5,-5.29,-6.59,-6.59,0,*5D
1508778488.5,61467,10.44,72852.0,-5.29,-6.59,-6.59,0,*5C
1508778489.77,61468,10.44,72852.5,-5.31,-6.63,-6.63,0,*5A
1508778491.0,61469,10.44,72852.5,-5.29,-6.59,-6.63,0,*5B
1508778492.25,61470,10.44,72854.0,-5.29,-6.63,-6.63,0,*5A
1508778493.5,61471,10.44,72854.5,-5.31,-6.59,-6.63,0,*5B
1508778494.75,61472,10.44,72862.0,-5.31,-6.63,-6.73,0,*50
1508778496.0,61473,10.44,72854.0,-5.31,-6.63,-6.73,0,*51
1508778497.22,61474,10.38,72850.8,-5.29,-6.73,-6.63,0,*5F
1508778498.48,61475,10.38,72856.0,-5.31,-6.59,-6.63,0,*5F
1508778499.71,61476,10.44,72856.3,-5.31,-6.59,-6.59,0,*55
1508778500.94,61477,10.38,72856.3,-5.31,-6.59,-6.51,0,*5C
1508778502.15,61478,10.44,72862.5,-5.29,-6.51,-6.59,0,*5A
1508778503.38,61479,10.44,72860.3,-5.29,-6.59,-6.63,0,*5A
1508778504.65,61480,10.44,72866.0,-5.31,-6.63,-6.63,0,*5C